CST,Max TemperatureF,Mean TemperatureF,Min TemperatureF,Max Dew PointF,MeanDew PointF,Min DewpointF,Max Humidity, Mean Humidity, Min Humidity, Max Sea Level PressureIn, Mean Sea Level PressureIn, Min Sea Level PressureIn, Max VisibilityMiles, Mean VisibilityMiles, Min VisibilityMiles, Max Wind SpeedMPH, Mean Wind SpeedMPH, Max Gust SpeedMPH,PrecipitationIn, CloudCover, Events, WindDirDegrees
2013-11-1,74,61,47,38,33,30,54,39,23,30.17,29.91,29.80,10,9,1,28,10,35,0.00,0,,291
2013-11-2,70,53,36,35,31,25,76,47,18,30.35,30.24,30.18,10,10,9,13,4,16,0.00,0,,290
2013-11-3,71,58,44,42,35,31,65,47,28,30.15,30.03,29.90,10,10,10,28,14,41,T,1,,169
2013-11-4,71,64,57,56,50,40,87,69,51,29.97,29.92,29.87,10,10,10,23,14,29,0.00,3,,166
2013-11-5,74,68,61,63,61,55,93,79,64,29.99,29.92,29.83,10,10,8,25,13,32,T,7,Rain,160
2013-11-6,67,52,37,61,35,24,87,56,25,30.38,30.22,29.98,10,10,10,29,13,38,T,3,Rain,6
2013-11-7,65,49,32,35,28,20,89,54,18,30.51,30.43,30.37,10,10,10,13,5,16,0.00,0,,153
2013-11-8,64,52,40,45,35,23,86,55,23,30.35,30.22,30.08,10,10,10,24,10,31,0.02,3,Rain,180
2013-11-9,74,61,48,52,45,38,80,59,38,30.14,30.06,30.00,10,10,10,20,12,24,0.00,0,,178
2013-11-10,69,58,47,55,52,47,100,80,59,30.32,30.24,30.13,10,8,0,15,8,20,0.00,4,Fog,145
2013-11-11,73,63,52,56,53,51,93,71,49,30.27,30.21,30.13,10,8,4,14,6,17,0.00,4,,191
2013-11-12,58,44,30,54,26,11,89,56,23,30.72,30.60,30.30,10,9,3,28,14,37,T,4,Rain,8
2013-11-13,56,39,21,23,13,6,68,41,14,30.69,30.53,30.32,10,10,10,10,4,13,0.00,0,,175
2013-11-14,63,50,36,38,31,23,59,49,39,30.30,30.07,29.93,10,10,10,23,13,30,0.00,3,,178
2013-11-15,77,61,44,48,43,36,83,56,29,29.95,29.85,29.76,10,10,10,18,10,26,0.00,0,,197
2013-11-16,83,70,57,58,53,49,75,55,34,29.76,29.69,29.59,10,10,10,28,15,37,0.00,1,,196
2013-11-17,84,72,60,59,43,31,90,53,16,29.97,29.81,29.66,10,10,10,26,14,32,0.00,0,,235
2013-11-18,72,61,49,34,31,25,52,37,22,30.18,30.10,29.98,10,10,10,14,7,17,0.00,1,,61
2013-11-19,73,62,51,46,40,31,55,44,32,30.12,29.99,29.87,10,10,10,28,13,33,0.00,3,,150
2013-11-20,73,65,57,59,55,47,86,74,61,29.90,29.84,29.77,10,10,10,23,15,37,0.00,6,,180
2013-11-21,79,57,35,63,53,30,87,69,51,30.30,29.99,29.84,10,10,9,30,13,38,0.01,7,Rain,184
2013-11-22,35,29,22,29,25,21,100,85,69,30.53,30.45,30.32,10,6,1,22,19,28,0.68,8,Rain-Snow,3
2013-11-23,34,31,28,32,27,25,92,81,69,30.60,30.53,30.47,10,9,3,23,14,30,0.11,8,Rain-Snow,8
2013-11-24,34,32,30,32,29,28,92,81,69,30.59,30.42,30.28,10,9,7,14,7,18,0.34,8,Rain,51
2013-11-25,37,33,28,34,31,28,100,88,76,30.30,30.19,30.11,10,9,3,12,6,12,0.01,8,Rain-Snow,284
2013-11-26,51,42,33,31,28,24,89,63,36,30.42,30.30,30.20,10,10,10,29,14,35,T,4,Snow,346
2013-11-27,49,37,25,28,23,15,81,56,31,30.50,30.40,30.31,10,10,10,15,3,18,0.00,0,,135
2013-11-28,57,44,31,31,27,21,70,53,36,30.37,30.32,30.27,10,10,10,17,7,22,0.00,0,,177
2013-11-29,61,46,30,42,33,24,78,59,40,30.45,30.35,30.27,10,10,10,20,10,26,0.00,0,,169
2013-11-30,68,56,44,49,46,41,89,69,49,30.30,30.20,30.10,10,10,10,24,11,30,0.00,2,,205